Weather History for Marshalltown, IA

Change the Weather History Date:

Friday, February 22, 2013

  Actual Average Record
Temperature  
Mean Temperature 23 °F 25 °F  
Max Temperature 28 °F 35 °F 50 °F (2012)
Min Temperature 18 °F 16 °F 5 °F (2008)
Degree Days  
Heating Degree Days 42 40  
Month to date heating degree days 894 941  
Since 1 July heating degree days 4767 5174  
Cooling Degree Days 0 0  
Month to date cooling degree days 0 0  
Year to date cooling degree days 0 0  
Moisture  
Dew Point 21 °F    
Average Humidity 83    
Maximum Humidity 92    
Minimum Humidity 74    
Precipitation  
Precipitation 0.04 in 0.04 in 0.04 in (2004)
Month to date precipitation 0.45 0.58  
Sea Level Pressure  
Sea Level Pressure 29.85 in    
Wind  
Wind Speed 10 mph (NNW)    
Max Wind Speed 22 mph    
Max Gust Speed 25 mph    
Visibility 5 miles    
Events Fog , Snow    
T = Trace of Precipitation, MM = Missing Value Source: NWS Daily Summary

Daily Weather History Graph

Daily Weather History Graph

Search for Another Location

Airport:

Trip Planner

Search our weather history database for the weather conditions in past years. The results will help you decide how hot, cold, wet, or windy it might be!

Date:

Astronomy

Feb. 22, 2013 Rise Set
Actual Time 6:57 AM CST 5:53 PM CST
Civil Twilight 6:28 AM CST 6:21 PM CST
Nautical Twilight 5:56 AM CST 6:54 PM CST
Astronomical Twilight 5:24 AM CST 7:26 PM CST
Moon 3:03 PM CST (2/22) 4:45 AM CST (2/22)
Length of Visible Light 11h 52m
Length of Day
10h 56m
Waxing Gibbous, 90% of the Moon is Illuminated
Feb 22
Waxing Gibbous
Feb 25
Full
Mar 4
Last Quarter
Mar 11
New
Mar 19
First Quarter

Hourly Weather History & Observations

Time (CST) Temp. Windchill Dew Point Humidity Pressure Visibility Wind Dir Wind Speed Gust Speed Precip Events Conditions
12:14 AM 24.8 °F 12.4 °F 21.2 °F 86% 29.85 in 2.0 mi East 15.0 mph - 0.01 in Snow Light Snow
12:42 AM 24.8 °F 11.5 °F 21.2 °F 86% 29.84 in 1.2 mi ENE 17.3 mph - 0.01 in Snow Light Snow
12:53 AM 24.1 °F 12.0 °F 21.9 °F 91% 29.88 in 1.2 mi ENE 13.8 mph - 0.01 in Snow Light Snow
1:35 AM 24.8 °F 12.9 °F 21.2 °F 86% 29.82 in 1.0 mi ENE 13.8 mph - 0.00 in Snow Light Snow
1:53 AM 24.1 °F 10.1 °F 21.9 °F 91% 29.85 in 1.5 mi East 18.4 mph - 0.00 in Snow Light Snow
2:53 AM 24.1 °F 11.5 °F 21.9 °F 91% 29.82 in 1.5 mi East 15.0 mph - 0.00 in Snow Light Snow
3:10 AM 24.8 °F 11.9 °F 21.2 °F 86% 29.78 in 1.0 mi East 16.1 mph - 0.00 in Snow Light Snow
3:53 AM 24.1 °F 12.0 °F 21.9 °F 91% 29.80 in 2.0 mi East 13.8 mph - 0.01 in Snow Light Snow
3:56 AM 24.8 °F 13.4 °F 21.2 °F 86% 29.76 in 1.8 mi East 12.7 mph - 0.00 in Snow Light Snow
4:26 AM 24.8 °F 15.3 °F 21.2 °F 86% 29.75 in 1.8 mi East 9.2 mph - 0.01 in Snow Light Snow
4:43 AM 24.8 °F 15.3 °F 21.2 °F 86% 29.75 in 3.0 mi East 9.2 mph - 0.01 in Snow Light Snow
4:53 AM 24.1 °F 13.7 °F 21.9 °F 91% 29.79 in 4.0 mi East 10.4 mph - 0.01 in Snow Light Snow
4:59 AM 24.8 °F 15.3 °F 21.2 °F 86% 29.76 in 1.8 mi East 9.2 mph - 0.00 in Snow Light Snow
5:07 AM 24.8 °F 15.3 °F 21.2 °F 86% 29.76 in 1.5 mi East 9.2 mph - 0.00 in Snow Light Snow
5:34 AM 24.8 °F 17.9 °F 21.2 °F 86% 29.76 in 2.0 mi East 5.8 mph - 0.01 in Snow Light Snow
5:53 AM 24.1 °F 17.0 °F 21.0 °F 88% 29.80 in 4.0 mi East 5.8 mph - 0.01 in Snow Light Snow
6:02 AM 24.8 °F 17.9 °F 21.2 °F 86% 29.76 in 4.0 mi East 5.8 mph - 0.00 in Snow Light Snow
6:22 AM 24.8 °F 20.5 °F 21.2 °F 86% 29.76 in 6.0 mi North 3.5 mph - 0.00 in   Overcast
6:31 AM 24.8 °F - 21.2 °F 86% 29.77 in 5.0 mi Calm Calm - 0.00 in   Overcast
6:53 AM 23.0 °F - 21.0 °F 92% 29.81 in 6.0 mi Calm Calm - 0.00 in   Overcast
7:53 AM 24.1 °F 18.2 °F 21.0 °F 88% 29.82 in 4.0 mi North 4.6 mph - N/A   Overcast
8:05 AM 24.8 °F 19.1 °F 21.2 °F 86% 29.78 in 4.0 mi North 4.6 mph - 0.00 in Snow Light Snow
8:14 AM 24.8 °F 20.5 °F 21.2 °F 86% 29.78 in 1.8 mi North 3.5 mph - 0.00 in Snow Light Snow
8:41 AM 24.8 °F 17.9 °F 21.2 °F 86% 29.78 in 2.5 mi North 5.8 mph - 0.00 in Snow Light Snow
8:48 AM 24.8 °F 19.1 °F 21.2 °F 86% 29.78 in 3.0 mi North 4.6 mph - 0.00 in Snow Light Snow
8:53 AM 24.1 °F 17.0 °F 21.0 °F 88% 29.83 in 4.0 mi North 5.8 mph - 0.00 in   Overcast
9:53 AM 25.0 °F 19.3 °F 23.0 °F 92% 29.84 in 5.0 mi NW 4.6 mph - 0.00 in   Mostly Cloudy
10:06 AM 24.8 °F 19.1 °F 23.0 °F 93% 29.81 in 5.0 mi NW 4.6 mph - N/A   Mostly Cloudy
10:53 AM 26.1 °F 19.4 °F 23.0 °F 88% 29.86 in 6.0 mi NW 5.8 mph - N/A   Overcast
11:12 AM 26.6 °F 20.0 °F 23.0 °F 86% 29.83 in 1.8 mi WNW 5.8 mph - 0.00 in Snow Light Snow
11:19 AM 26.6 °F 20.0 °F 23.0 °F 86% 29.83 in 0.8 mi WNW 5.8 mph - 0.00 in Snow Light Snow
11:26 AM 26.6 °F 19.1 °F 23.0 °F 86% 29.83 in 0.5 mi WNW 6.9 mph - 0.00 in Fog , Snow Snow
11:39 AM 26.6 °F 17.5 °F 24.8 °F 93% 29.83 in 1.0 mi WNW 9.2 mph - 0.00 in Snow Light Snow
11:53 AM 27.0 °F 18.0 °F 24.1 °F 89% 29.87 in 2.5 mi WNW 9.2 mph - 0.00 in Snow Light Snow
12:11 PM 28.4 °F 19.1 °F 24.8 °F 86% 29.83 in 3.0 mi WNW 10.4 mph - 0.00 in Snow Light Snow
12:41 PM 28.4 °F 19.1 °F 23.0 °F 80% 29.83 in 8.0 mi WNW 10.4 mph - 0.00 in   Overcast
12:53 PM 28.0 °F 18.1 °F 23.0 °F 81% 29.86 in 8.0 mi WNW 11.5 mph - 0.00 in   Mostly Cloudy
1:53 PM 27.0 °F 15.2 °F 21.9 °F 81% 29.88 in 10.0 mi West 15.0 mph - N/A   Overcast
2:53 PM 26.1 °F 15.0 °F 21.0 °F 81% 29.90 in 10.0 mi West 12.7 mph - N/A   Overcast
3:53 PM 25.0 °F 11.3 °F 19.9 °F 81% 29.92 in 10.0 mi WNW 18.4 mph - N/A   Overcast
4:53 PM 24.1 °F 10.6 °F 18.0 °F 77% 29.94 in 10.0 mi WNW 17.3 mph - N/A   Overcast
5:53 PM 24.1 °F 11.0 °F 18.0 °F 77% 29.96 in 10.0 mi WNW 16.1 mph - N/A   Overcast
6:53 PM 23.0 °F 12.4 °F 18.0 °F 81% 29.97 in 10.0 mi WNW 10.4 mph - N/A   Overcast
7:53 PM 23.0 °F 12.4 °F 18.0 °F 81% 29.98 in 10.0 mi WNW 10.4 mph - N/A   Overcast
8:39 PM 23.0 °F 12.4 °F 17.6 °F 80% 29.94 in 10.0 mi West 10.4 mph - N/A   Overcast
8:53 PM 23.0 °F 12.4 °F 18.0 °F 81% 29.98 in 10.0 mi West 10.4 mph - N/A   Overcast
9:31 PM 21.2 °F 10.9 °F 17.6 °F 86% 29.94 in 10.0 mi West 9.2 mph - N/A   Overcast
9:53 PM 21.9 °F 11.0 °F 16.0 °F 78% 29.98 in 10.0 mi West 10.4 mph - N/A   Overcast
10:16 PM 19.4 °F 8.6 °F 15.8 °F 86% 29.94 in 10.0 mi West 9.2 mph - N/A   Overcast
10:53 PM 18.0 °F 6.9 °F 12.9 °F 81% 29.99 in 10.0 mi West 9.2 mph - N/A   Mostly Cloudy
11:53 PM 19.9 °F 10.1 °F 15.1 °F 81% 29.97 in 10.0 mi West 8.1 mph - N/A   Overcast